STARLINK-32467, 61713

Orbit data source: Space-Track

STARLINK-32467, 61713 is a payload satellite owned by SpaceX/Seattle (US) in LEO that was launched on Wed, 30 Oct 2024 UTC via an FALCON 9 launch vehicle from the Air Force Eastern Test Range (AFETR). Payload-class satellites include a variety of spacecraft equipped with specific instruments for various scientific and technological missions. These include communications satellites like Starlink; space stations such as the ISS; scientific satellites like the Hubble; Earth observation satellites from companies like Planet Labs, Umbra, and HawkEye 360; GPS; miniature CubeSats for education and research; and military/defense satellites.

Loading next visibility...
Identifier
61713, 2024-196G
Orbit
LEO
Country
Flag of USUS
Related business
Manufacturer
SpaceX/Seattle
Mission
Operational Commercial Communications
Bus & Motor
STARLINK V2M, Unknown motor
Mass
730 kg wet, ~700 kg dry
Launch date (UTC)
2024-10-30 (2 years ago)
Launch vehicle
FALCON 9
Launch site
Air Force Eastern Test Range (AFETR)
Object type
Payload
Rocket body
Debris
Shape & HBR
Box + 2 Pan, 17.7 m
Radar Cross Section
33.884 m², Large (>1 m²)

Expand to show TLE details & history
Last TLE update: 10 hours ago

TLE from 10 hours ago
0 STARLINK-32467
1 61713U 24196G   26257.82551523  .00000062  00000-0  12968-4 0  9991
2 61713  53.1597 300.0280 0001517  78.7263 281.3910 15.34387551106159
Epoch: 2026-09-14T19:48Z
TLE epoch observation values (Epoch: 2026-09-14T19:48:44.515Z)
Latitude
-0.00004°
Longitude
9.04224°
Altitude
463.437 km
Speed
7.636 km/s
True Right ascension
20h 00m 06s
True Declination
0° 00' 00"
Sunlit
Object was in full shadow at epoch
Visualization orbit readout
Latitude
Unknown
Longitude
Unknown
Altitude
Unknown
Speed
Unknown
Apparent Right ascension
Unknown
Apparent Declination
Unknown
Sunlit
N/A
Visualization observer readout
Local Sidereal Time
22:35:17
Azimuth
Unknown
Elevation
Unknown
Doppler factor
Unknown
Orbital elements
Apogee altitude
464.035 km
Perigee altitude
461.959 km
Semi-major axis
6,841.134 km
Eccentricity
0.00015
Inclination
53.1597°
RAAN
300.028°
Arg. of periapsis
78.7263°
True anomaly
281.37396°
Mean anomaly
281.391°
Eccentric anomaly
281.38248°
Mean motion
3.83576 °/min
Orbital period
93.85 mins
BSTAR
0.000012968
Loading maneuver chart data...
Computing Atmospheric mass density...
Loading historical data...
Loading historical data...
Loading historical data...
Loading historical data...
Loading historical data...
Loading historical data...
Loading historical data...

Documentation

Showing up to 5 results
|